Regional Weather Roundup
Issued by NWS

Home | Current Version | Previous Version | Text Only | Print | Product List | Glossary On
Versions: 1 2 3 4 5 6 7 8 9 10 11 12 13 14 15 16 17 18 19 20 21 22 23 24 25 26 27 28 29 30 31 32 33 34 35 36 37 38 39 40 41 42 43 44 45 46 47 48 49 50
000
ASUS45 KBOI 280710
RWRID

IDAHO REGIONAL WEATHER ROUNDUP
NATIONAL WEATHER SERVICE BOISE ID
100 AM MDT WED SEP 28 2016

NOTE: "FAIR" INDICATES FEW OR NO CLOUDS BELOW 12000 FEET
WITH NO SIGNIFICANT WEATHER AND/OR OBSTRUCTIONS TO VISIBILITY

IDZ012-014-280800-
SOUTHWEST IDAHO


CITY           SKY/WX    TMP DP  RH WIND       PRES   REMARKS
BOISE          CLEAR     66  40  38 SE12      30.01S
CALDWELL       CLEAR     56  47  71 SE3       30.00
MOUNTAIN HOME  CLEAR     58  44  58 E6        30.02S
$$

IDZ016-017-280800-
SOUTHCENTRAL IDAHO


CITY           SKY/WX    TMP DP  RH WIND       PRES   REMARKS
BURLEY         CLEAR     49  46  90 CALM      30.10S
JEROME         CLEAR     60  44  55 NE13      30.10S
TWIN FALLS     CLEAR     58  41  53 S10       30.10R
$$

IDZ019>023-280800-
SOUTHEAST IDAHO


CITY           SKY/WX    TMP DP  RH WIND       PRES   REMARKS
IDAHO FALLS    CLEAR     47  42  83 N3        30.19R
POCATELLO      CLEAR     48  45  89 CALM      30.16R
REXBURG        CLEAR     47  43  86 NE5       30.20R
$$

IDZ006-010-011-018-031-032-280800-
CENTRAL IDAHO MOUNTAINS


CITY           SKY/WX    TMP DP  RH WIND       PRES   REMARKS
MCCALL         CLEAR     49  39  68 CALM      30.16R
HAILEY         CLEAR     54  41  62 NW9       30.23S
STANLEY          N/A     45  35  68 CALM      30.29R
SALMON         CLEAR     46  39  76 S3        30.15R
CHALLIS        CLEAR     50  34  54 S3        30.20R
$$

IDZ002-004-006-007-026-280800-
NORTHERN IDAHO


CITY           SKY/WX    TMP DP  RH WIND       PRES   REMARKS
LEWISTON       CLEAR     64  45  49 SE5       30.00S
LOWELL           N/A     55  52  89 CALM      30.07R
COEUR D`ALENE  CLEAR     53  45  74 NE5       30.06S
MULLAN PASS    CLEAR     56  42  59 S5        30.21S
$$



USA.gov is the U.S. government's official web portal to all federal, state and local government web resources and services.